This demonstration page uses our WeatherBlox Daily Observations layout. Learn more.

Left ArrowRight Arrow

53.62937, 11.41316

Hourly Observations for October 20, 2015

Temp ( °F °C ) Dew Point ( °F °C ) Humidity (%) Winds ( mph kmh ) Pressure ( in mb ) Visibility ( mi km ) Precip ( " mm )
6:20 am 06:20 Cloudy with Patchy Fog 46 8 46 8 100 100 VRB 1 2 30.12 1020 30 48 N/A
6:50 am 06:50 Cloudy with Patchy Fog 46 8 46 8 100 100 VRB 1 2 30.12 1020 30 48 N/A
7:20 am 07:20 Mostly Cloudy with Patchy Fog 46 8 45 7 93 93 NNW 2 4 30.12 1020 30 48 N/A
7:50 am 07:50 Mostly Cloudy with Patchy Fog 46 8 45 7 93 93 VRB 1 2 30.12 1020 30 48 N/A
8:20 am 08:20 Mostly Cloudy with Patchy Fog 46 8 46 8 100 100 NW 2 4 30.12 1020 30 48 N/A
8:50 am 08:50 Mostly Cloudy 48 9 48 9 100 100 SW 2 4 30.12 1020 4 7 N/A
9:20 am 09:20 Cloudy 48 9 48 9 100 100 VRB 2 4 30.12 1020 30 48 N/A
9:50 am 09:50 Mostly Cloudy 50 10 48 9 94 94 NW 3 6 30.15 1021 30 48 N/A
10:20 am 10:20 Mostly Cloudy 50 10 48 9 94 94 N 2 4 30.15 1021 30 48 N/A
10:50 am 10:50 Cloudy 50 10 48 9 94 94 N 3 6 30.15 1021 30 48 N/A
11:20 am 11:20 Cloudy 50 10 48 9 94 94 N 5 7 30.15 1021 30 48 N/A
11:50 am 11:50 Cloudy 52 11 48 9 88 88 VRB 2 4 30.15 1021 30 48 N/A
12:20 pm 12:20 Cloudy 52 11 48 9 88 88 NNW 3 6 30.15 1021 30 48 N/A
12:50 pm 12:50 Cloudy 52 11 48 9 88 88 VRB 5 7 30.12 1020 30 48 N/A
1:20 pm 13:20 Cloudy 52 11 46 8 82 82 NNW 6 9 30.12 1020 30 48 N/A
1:50 pm 13:50 Cloudy 52 11 45 7 77 77 NNW 6 9 30.12 1020 30 48 N/A
2:20 pm 14:20 Cloudy 52 11 46 8 82 82 NW 5 7 30.12 1020 30 48 N/A
2:50 pm 14:50 Cloudy 54 12 46 8 77 77 VRB 5 7 30.12 1020 30 48 N/A
3:20 pm 15:20 Cloudy 54 12 45 7 72 72 NNW 5 7 30.12 1020 30 48 N/A
3:50 pm 15:50 Cloudy 54 12 45 7 72 72 NW 5 7 30.12 1020 30 48 N/A
4:20 pm 16:20 Cloudy 52 11 45 7 77 77 NW 3 6 30.12 1020 30 48 N/A
4:50 pm 16:50 Cloudy 52 11 45 7 77 77 NW 5 7 30.12 1020 30 48 N/A
5:20 pm 17:20 Mostly Cloudy 50 10 45 7 82 82 NW 3 6 30.12 1020 30 48 N/A
5:50 pm 17:50 Cloudy 50 10 45 7 82 82 VRB 2 4 30.12 1020 30 48 N/A
6:20 pm 18:20 Cloudy 50 10 45 7 82 82 VRB 2 4 30.12 1020 30 48 N/A
6:50 pm 18:50 Cloudy 50 10 45 7 82 82 VRB 2 4 30.15 1021 30 48 N/A

Powered by AerisWeather